Reflectivity
-20 -20 -20 -5 -20 -20 -19 -20 -20 -20 -20 -8 -1 8 -20 -13 -0 -20 -20 -20 -20 -20 -20 -20 -20 -20 -20 -20 -20 4 -20 -20 -20 -20 -20 -20 -20 -20 -20 -20 -20 -20 -20
-20 -20 -20 11 -16 -20 -18 14 -7 -20 -17 -5 4 18 17 18 2 -20 -20 -20 -20 -20 -20 -20 -20 -20 -20 -20 -20 -20 -20 -20 -20 13 -20 6 11 -4 -20 -20 -20 -20 -20
-20 -20 -20 10 7 -20 3 11 -7 -14 -14 6 3 16 18 6 -20 -20 -20 -20 -20 -20 -20 -20 -20 -20 -20 -20 -20 -20 -20 -20 -20 8 -2 -20 -20 13 8 5 15 15 10
-20 -20 -20 8 1 -20 8 3 9 11 -20 11 16 -11 -20 -20 -20 -20 -20 -20 -20 -20 -20 -20 -20 -20 -20 -20 -20 -20 -20 -20 -12 11 -5 -15 -20 -20 -20 14 15 15 4
-20 -20 -20 4 2 14 -11 5 -8 -20 -20 15 2 -20 -20 -20 -20 -20 -20 -20 -20 -20 -20 -20 -20 -20 -20 -16 -20 -20 -20 -20 -20 -20 -18 -19 -20 -20 -20 -20 -15 -5 -20
-20 -20 -20 2 4 16 7 12 -7 -20 -20 18 -14 -20 -20 -20 -20 -20 -20 -20 -20 -20 -20 -20 -20 -20 6 -20 -20 -20 -20 -20 -20 -20 -20 -20 -20 -20 -20 -20 -20 -20 -20
-20 -20 -20 -16 1 -10 -18 3 -20 -20 -20 17 -14 -20 -20 -20 -20 -20 -20 -20 -20 -20 -20 -20 0 14 -7 -20 -20 -20 -20 -20 -18 -9 8 9 15 2 -13 -8 -20 -15 12
-20 -19 -20 -20 -16 0 -20 4 -10 -20 -0 15 -7 -20 -20 -20 -20 -20 -20 -20 -20 -20 -20 -20 9 9 -20 -20 -20 -20 -20 -20 -20 -5 -20 -20 -19 16 -3 -19 11 16 2
4 16 5 -20 -20 5 -19 -5 -2 -6 4 16 -16 -20 -20 -20 -20 -20 -20 -20 -9 -20 -20 -20 -15 3 -20 -20 -20 -20 -20 -20 -20 -20 -20 -20 17 19 -15 -20 -14 2 -20
0 -20 -20 1 -20 13 13 -20 -20 -2 14 -9 -20 -20 -20 -20 -20 -20 -20 -20 8 -20 -20 -20 -20 -18 -20 -20 -20 -20 -20 -20 -20 -20 -20 -11 12 -7 16 15 -4 -20 -20
-20 -11 -20 -20 -20 7 9 -20 -9 14 10 -20 -20 -20 -20 -20 -20 -20 -20 -9 3 -20 -20 -10 -20 -20 -20 -20 -20 -20 -20 -20 -20 -20 -20 13 13 8 9 16 -6 17 9
-20 26 -20 -20 -2 -20 26 -13 -2 -15 -20 -20 -20 -20 -20 -20 -20 -20 -20 3 -1 -20 -14 -1 -20 -20 -20 -20 -20 -20 -20 -20 -20 -20 -16 12 15 18 13 -20 -0 -16 -20
-20 -20 -20 -20 13 -18 13 6 1 1 -20 -20 -20 -20 -20 -20 -20 -20 -20 -20 -20 -20 -18 -18 -20 -20 -20 -20 -20 -20 -20 -20 -20 -20 -9 10 14 -20 -20 -0 -4 -20 -20
-20 -20 7 28 30 28 -11 -20 -18 -5 -20 -20 -20 -20 -20 -20 -20 -20 -20 -20 -20 -20 -20 -20 -20 -20 -20 -20 -20 -20 -20 -20 -20 -20 -20 7 9 7 -13 -20 -20 14 15
-20 -20 -20 26 31 31 28 -13 -20 -20 -20 -20 -20 -20 -20 -20 -20 -20 -20 -20 -20 -20 -20 -20 -20 -20 -20 -20 -20 -20 -20 -20 -20 -20 -20 -20 -20 -20 -18 -19 -20 -20 -4
-20 -20 -20 29 31 27 24 -20 -20 -20 -20 -20 -20 -20 -20 -20 -20 -20 -20 -20 -20 -20 -20 -20 -20 -20 -20 -20 -20 -20 -20 -20 -20 -20 -20 -20 -20 -20 -20 -20 -20 -10 18
-20 -20 -20 27 32 26 29 24 -4 -20 -20 -20 -20 -20 -20 -20 -20 -20 -20 -20 -20 -20 -20 -20 -20 -20 -20 -20 -20 -20 -20 -20 -20 -20 -20 -20 -20 -20 -20 -20 -20 -19 -17
-20 -20 21 -17 15 38 35 28 20 -20 -20 -20 -20 -20 -20 -20 -20 -20 -20 -20 -20 -20 -20 -20 -20 -20 -20 -20 -20 -20 -20 -20 -20 -20 -20 -20 -20 -20 -20 -20 -20 -20 -20
-20 -20 -20 -12 33 43 46 41 39 -18 -20 -20 -20 -20 -20 -20 -20 -20 -20 -20 -20 -20 -20 -20 -20 -20 -20 -20 -20 -20 -20 -20 -20 -20 -20 -20 -20 -20 -20 -20 -20 -20 -20
-20 -20 -20 -11 29 24 47 42 32 -7 -20 -20 -20 -20 -20 -20 -20 -20 -20 -20 -20 -20 -20 -20 -20 -20 -20 -20 -20 -20 -20 -20 -20 -20 -20 -20 -20 -20 -20 -20 -20 -20 -20
-20 14 -20 0 25 16 39 45 47 39 15 -15 -20 -20 -20 -20 -20 -20 -20 -20 -20 -20 -20 -20 -20 -20 -20 -20 -20 -20 -20 -20 -20 -20 -20 -20 -20 -20 -20 -20 -20 -20 -20
-20 -20 -20 -20 22 24 35 39 43 32 12 -20 -20 -20 -20 -20 -20 -20 -20 -20 -20 -20 -20 -20 -20 -20 -20 -20 -20 -20 -20 -20 -20 -20 -20 -20 -20 -20 -20 -20 -20 -20 -20
-20 -20 -20 -4 16 29 32 33 38 40 40 27 -20 -20 -20 -20 -20 -20 -20 -20 -20 -20 -20 -20 -20 -20 -20 -20 -20 -20 -20 -20 -20 -20 -20 -20 -20 -20 -20 -20 -20 -20 -20
-20 -20 -20 33 27 19 29 33 27 28 28 33 9 -19 -20 -20 -20 -20 -20 -20 -20 -20 -20 -20 -20 -20 -20 -20 -20 -20 -20 -20 -20 -20 -20 -20 -20 -20 -20 -20 -20 -20 -20
-20 -20 -18 3 11 17 25 26 23 26 22 37 23 -7 -20 -20 -20 -20 -20 -20 -20 -20 -20 -20 -20 -20 -20 -20 -20 -20 -20 -20 -20 -20 -20 -20 -20 -20 -20 -20 -20 -20 -20
-20 -18 -20 -17 7 11 11 20 17 22 18 24 36 9 -18 -17 -20 -20 -15 -7 -14 -13 -20 -20 -20 -20 -20 -20 -20 -20 -20 -20 -20 -20 -20 -20 -20 -20 -20 -20 -20 -20 -20
Wind_Speed
11 15 17 18 18 17 16 18 17 16 16 17 16 17 15 14 14 14 13 13 13 13 12 12 11 11 11 11 12 14 13 12 12 14 14 13 12 12 12 15 11 9 14
16 16 17 19 17 16 15 16 18 15 16 16 16 14 13 13 13 13 13 13 13 13 13 12 13 13 14 14 13 13 12 11 12 15 16 13 13 15 15 16 12 10 14
15 15 13 16 16 16 14 15 17 16 15 17 15 14 13 13 13 13 13 13 13 13 13 14 14 15 15 15 14 12 10 10 9 5 12 8 10 18 19 17 15 17 17
13 15 13 15 17 17 14 15 16 17 15 13 13 13 13 13 13 12 13 13 14 14 14 14 15 15 14 14 14 12 10 6 5 3 2 10 10 16 17 18 18 19 19
10 14 13 15 15 17 16 14 16 15 17 15 14 14 13 13 13 13 13 13 14 14 15 15 15 15 16 16 14 11 7 6 6 10 11 11 6 12 16 17 15 16 17
6 14 14 17 16 16 18 17 18 18 17 16 15 14 14 13 13 13 14 14 14 14 15 16 16 16 17 15 13 10 7 5 8 9 8 12 6 16 18 19 19 17 16
4 13 17 19 16 16 15 18 18 18 19 16 16 15 15 14 13 14 14 15 15 15 16 16 16 17 16 13 11 9 12 11 12 10 7 8 10 20 20 18 19 19 18
8 11 16 19 16 18 17 18 18 18 18 18 16 16 15 14 14 14 15 15 16 16 16 16 15 17 15 12 9 8 10 7 13 11 8 6 17 16 16 18 17 16 18
8 6 14 14 13 17 18 19 18 18 17 18 16 15 14 14 14 15 15 16 16 17 16 17 15 16 15 11 8 6 5 13 9 6 10 6 15 14 16 16 15 15 15
8 7 15 14 11 12 11 18 17 17 15 15 15 14 13 13 11 14 13 14 16 17 16 16 16 16 14 10 6 3 9 15 10 9 5 6 14 16 15 15 16 15 15
7 8 12 15 13 11 12 12 15 15 14 13 12 14 12 5 7 8 8 12 17 15 15 17 16 15 11 7 4 2 5 6 8 6 4 12 13 14 15 14 16 13 14
7 8 6 14 14 13 11 13 12 11 8 8 8 9 7 8 7 7 9 12 15 13 14 17 17 15 7 3 1 2 1 9 8 6 5 14 14 13 13 13 13 13 13
7 7 9 13 14 14 11 10 7 7 7 6 10 8 7 6 7 6 4 4 5 7 7 9 8 5 6 4 3 2 6 10 7 4 5 13 11 14 14 13 13 12 13
7 9 13 11 12 13 10 10 10 9 8 7 9 11 5 6 7 7 4 5 5 4 7 5 4 5 7 7 4 7 7 9 7 3 8 13 12 13 13 14 12 12 13
8 10 15 10 13 12 15 11 11 11 8 7 9 9 6 7 5 8 6 6 5 5 6 6 5 5 6 6 6 6 7 10 9 6 4 14 12 13 13 14 11 13 13
8 9 12 11 12 13 14 15 12 11 10 8 8 5 8 6 5 7 7 6 5 6 6 5 5 5 5 6 6 7 7 8 10 8 5 7 15 14 13 11 11 12 13
9 9 10 10 12 14 14 14 13 12 9 6 6 7 7 7 6 6 5 5 5 5 7 6 5 4 5 5 7 6 6 7 9 10 6 4 7 12 11 12 12 13 12
9 9 7 12 10 10 13 12 12 14 9 6 6 5 7 7 7 6 5 5 5 4 5 5 5 5 5 5 5 5 5 6 7 7 6 5 5 5 9 14 14 14 14
8 7 11 10 11 12 19 8 12 17 11 8 6 5 7 7 7 6 5 4 6 5 4 5 4 6 5 5 6 5 5 5 6 6 7 7 7 6 4 13 15 15 14
5 5 13 10 10 14 14 11 10 10 7 7 6 6 7 6 8 6 5 6 5 5 5 4 5 4 5 5 7 6 5 5 5 5 6 5 5 6 5 5 4 6 14
5 9 11 13 11 8 12 10 6 7 4 4 4 8 8 7 8 7 5 7 5 5 6 7 4 6 4 6 5 5 4 5 6 5 5 4 5 5 5 5 4 3 5
5 6 10 12 12 10 11 8 1 3 5 4 2 5 7 8 7 7 7 7 7 5 6 6 6 4 3 6 5 5 3 3 2 3 4 5 5 4 5 5 6 6 5
9 9 9 12 13 15 14 11 9 5 2 2 2 3 5 8 7 8 8 6 7 5 5 6 6 8 8 3 12 5 4 4 4 0 3 3 5 3 4 5 6 5 6
10 8 10 10 15 16 18 15 18 12 10 3 4 3 4 7 8 8 10 8 7 6 7 6 5 5 9 7 2 1 2 6 4 2 1 3 5 5 5 3 5 5 5
11 10 9 12 11 17 17 16 14 10 9 10 5 7 6 6 8 8 9 9 9 7 7 8 7 7 5 4 4 3 2 2 3 4 4 3 2 3 4 4 4 4 4
12 11 11 13 14 14 14 15 15 17 13 8 15 11 9 7 8 9 10 10 9 8 10 8 7 8 7 5 4 4 4 4 3 4 4 4 5 2 3 4 4 4 3
Wind_Direction
132 150 163 158 153 162 153 156 149 150 149 144 138 130 128 120 126 121 118 114 114 112 109 108 109 110 109 111 113 97 95 99 97 88 78 73 76 81 64 53 71 65 66
133 152 165 168 161 164 158 155 149 155 148 143 138 130 138 137 133 125 122 120 118 116 115 116 114 114 106 107 104 107 110 114 103 105 89 69 73 75 68 68 81 83 79
131 150 167 167 163 165 167 150 142 140 141 137 129 136 143 137 133 128 127 125 124 120 120 119 118 114 111 110 111 113 120 123 137 126 109 87 63 68 69 74 74 76 79
133 147 171 175 170 171 172 151 146 144 137 134 143 146 144 141 137 133 130 128 124 121 123 119 118 114 113 111 112 116 121 110 53 33 212 89 71 65 71 67 69 73 66
135 148 170 175 173 168 166 157 145 143 133 148 152 150 148 143 140 137 133 128 125 127 124 122 117 116 119 110 114 118 90 61 23 58 60 81 80 77 70 69 63 66 67
158 151 155 172 178 174 174 158 150 144 140 160 155 152 148 147 143 138 133 130 130 131 126 124 121 122 116 115 113 92 53 21 102 58 62 77 75 87 82 75 70 69 73
222 154 151 165 182 180 170 154 155 151 146 161 158 153 151 148 143 139 137 136 136 133 129 125 127 121 114 117 106 82 41 90 82 74 62 67 83 80 73 71 72 66 66
313 142 156 166 182 185 166 155 159 152 155 164 159 156 152 147 145 144 143 141 140 133 133 128 123 119 117 114 99 60 38 42 92 83 76 66 75 77 67 64 63 62 61
294 161 155 167 171 187 167 159 159 155 156 166 156 155 146 145 147 148 146 145 142 133 133 128 125 118 117 115 90 60 37 80 71 84 78 74 81 81 81 76 68 69 68
289 286 159 168 168 186 170 158 158 151 161 155 153 139 130 134 149 148 148 149 140 134 134 130 126 122 121 120 123 136 70 85 80 72 63 84 84 78 78 79 83 76 66
279 274 161 171 167 182 167 159 147 141 149 146 130 128 130 136 145 143 151 149 143 134 136 130 125 122 125 137 141 45 22 105 87 74 70 85 95 84 80 76 81 74 70
271 263 203 175 170 173 171 156 152 145 146 146 137 145 160 151 145 147 137 133 135 138 141 135 131 134 134 133 172 239 355 91 91 84 94 90 90 87 80 77 74 75 75
229 241 238 186 170 170 173 159 157 148 154 158 153 168 188 150 125 124 124 128 123 132 140 122 144 158 149 177 193 210 105 89 84 58 78 99 98 89 84 87 82 73 67
222 232 235 204 181 173 171 162 160 157 162 168 165 191 178 141 139 137 143 147 143 147 138 148 174 188 159 181 171 89 94 107 101 76 54 56 91 89 86 77 66 72 71
222 222 228 219 188 169 180 166 161 162 166 164 163 195 141 143 144 148 161 153 164 153 154 174 185 139 141 133 108 115 99 115 99 91 68 56 56 82 75 70 63 73 76
232 215 225 214 183 178 189 172 168 159 163 155 163 183 137 148 158 162 154 158 168 151 160 169 148 143 137 117 113 107 99 106 117 108 90 66 64 69 72 76 74 72 79
229 214 208 201 192 184 195 189 170 153 148 137 143 152 148 146 154 140 141 143 157 151 150 138 137 122 115 116 111 103 102 100 112 119 118 109 81 68 75 76 74 67 63
226 225 180 176 206 223 203 202 162 140 140 133 137 146 153 147 143 135 138 142 147 138 138 136 134 120 121 120 121 110 104 109 113 125 130 123 114 90 74 79 72 68 61
203 192 140 141 108 63 347 233 180 136 135 138 135 147 156 146 143 134 138 142 131 118 113 124 115 122 127 122 113 100 97 100 109 98 92 87 109 114 107 96 85 73 67
169 140 136 133 111 76 45 328 7 92 112 129 142 151 157 148 146 137 134 130 122 124 126 119 136 132 129 131 113 97 94 88 96 102 107 102 97 107 128 117 92 92 78
70 120 148 139 134 108 87 2 15 352 63 98 135 158 147 143 146 141 135 136 144 147 157 155 146 138 118 113 100 77 63 86 96 109 113 110 104 107 103 84 105 103 73
139 136 145 131 147 129 127 124 174 41 323 98 119 137 143 144 150 143 141 146 148 141 149 148 138 116 103 125 129 101 98 12 47 128 122 129 136 124 101 88 81 77 84
161 169 156 160 146 144 152 139 142 125 309 53 102 140 164 148 155 147 143 145 149 138 154 154 147 132 149 136 157 149 145 179 130 162 137 147 145 123 116 106 93 86 92
176 165 155 165 155 146 153 157 169 182 149 209 177 164 178 159 163 157 152 154 158 148 154 154 152 139 152 163 114 94 88 133 162 139 225 171 135 127 141 129 122 107 93
163 166 160 159 169 157 160 177 172 175 185 163 178 171 189 166 163 158 160 158 157 155 157 155 151 152 143 142 135 141 90 65 133 137 159 179 92 131 110 122 114 112 103
160 160 168 172 176 171 176 176 177 179 188 196 169 176 182 174 173 165 166 164 160 155 161 158 149 154 154 149 143 144 158 167 181 144 125 147 148 186 132 135 130 132 105